Castlegar, British Columbia

3:27 PM PDT on April 25, 2018 (GMT -0700)
Castlegar

Weather History for CYCG - July, 2013

Change the Weather History Date:

Saturday, July 20, 2013

  Actual Average Record
Temperature  
Mean Temperature 78 °F -  
Max Temperature 95 °F 82 °F 95 °F (2003)
Min Temperature 61 °F 53 °F 48 °F (1996)
Cooling Degree Days 13    
Growing Degree Days 28 (Base 50)    
Moisture  
Dew Point 53 °F    
Average Humidity 53    
Maximum Humidity 96    
Minimum Humidity 12    
Precipitation  
Precipitation 0.00 in 0.06 in - ()
Sea Level Pressure  
Sea Level Pressure 29.80 in    
Wind  
Wind Speed 5 mph ()    
Max Wind Speed 13 mph    
Max Gust Speed -    
Visibility 15.0 miles    
Events      
Averages and records for this station are not official NWS values.
T = Trace of Precipitation, MM = Missing Value Source: Averaged Metar Reports

Daily Weather History Graph

Daily Weather History Graph

Search for Another Location

Airport or City:

Astronomy

Jul. 20, 2013 Rise Set
Actual Time 5:07 AM PDT 8:45 PM PDT
Civil Twilight 4:27 AM PDT 9:25 PM PDT
Nautical Twilight 3:32 AM PDT 10:19 PM PDT
Astronomical Twilight 2:14 AM PDT 11:36 PM PDT
Moon 6:52 PM PDT (7/20) 2:52 AM PDT (7/20)
Length of Visible Light 16h 58m
Length of Day
15h 38m
Waxing Gibbous, 94% of the Moon is Illuminated
Jul 20
Waxing Gibbous
Jul 22
Full
Jul 29
Last Quarter
Aug 6
New
Aug 14
First Quarter

Hourly Weather History & Observations

Time (PDT) Temp. Heat Index Dew Point Humidity Pressure Visibility Wind Dir Wind Speed Gust Speed Precip Events Conditions
5:00 AM 64 °F - 63 °F 96% 29.70 in - SW 12.7 mph - -  
6:00 AM 55.4 °F - 53.6 °F 94% 29.95 in 15.0 mi Calm Calm - N/A   Scattered Clouds
7:00 AM 59.0 °F - 55.4 °F 88% 29.96 in 15.0 mi Calm Calm - N/A   Partly Cloudy
8:00 AM 64.4 °F - 55.4 °F 73% 29.95 in 15.0 mi Variable 2.3 mph - N/A   Partly Cloudy
9:00 AM 68.0 °F - 55.4 °F 64% 29.94 in 15.0 mi North 4.6 mph - N/A   Clear
10:00 AM 73.4 °F - 55.4 °F 53% 29.92 in 15.0 mi Calm Calm - N/A   Clear
11:00 AM 71 °F - 67 °F 85% 29.69 in - SSW 11.5 mph - -  
11:00 AM 77.0 °F - 57.2 °F 50% 29.88 in 15.0 mi Calm Calm - N/A   Partly Cloudy
12:00 PM 80.6 °F 80.8 °F 57.2 °F 45% 29.86 in 15.0 mi North 4.6 mph - N/A   Partly Cloudy
1:00 PM 84.2 °F 83.5 °F 57.2 °F 40% 29.83 in 15.0 mi NNW 4.6 mph - N/A   Partly Cloudy
2:00 PM 87.8 °F 86.5 °F 57.2 °F 35% 29.81 in 15.0 mi Variable 2.3 mph - N/A   Partly Cloudy
3:00 PM 95.0 °F - 44.6 °F 18% 29.78 in 15.0 mi South 12.7 mph - N/A   Partly Cloudy
4:00 PM 95.0 °F - 37.4 °F 13% 29.76 in 15.0 mi SSW 8.1 mph - N/A   Clear
5:00 PM 64 °F - 63 °F 95% 29.67 in - SW 11.5 mph - -  
5:00 PM 95.0 °F - 35.6 °F 12% 29.74 in 15.0 mi South 11.5 mph - N/A   Clear
6:00 PM 95.0 °F - 41.0 °F 15% 29.73 in 15.0 mi SSW 8.1 mph - N/A   Clear
7:00 PM 91.4 °F - 46.4 °F 21% 29.72 in 15.0 mi South 8.1 mph - N/A   Clear
8:00 PM 84.2 °F - 51.8 °F 33% 29.72 in 15.0 mi SSE 5.8 mph - N/A   Clear
9:00 PM 75.2 °F - 51.8 °F 44% 29.74 in 15.0 mi SSW 3.5 mph - N/A   Clear
11:00 PM 62 °F - 61 °F 94% 29.74 in - WNW 5.8 mph - -